Miscellaneous Local Product
Issued by NWS North Platte, NE

Home | Current Version | Previous Version | Graphics & Text | Print | Product List | Glossary On
Versions: 1 2 3 4 5 6 7 8 9 10 11 12 13 14 15 16 17 18 19 20 21 22 23 24 25 26 27 28 29 30 31 32 33 34 35 36 37 38 39 40 41 42 43 44 45 46 47 48 49 50
000
AXUS43 KLBF 290210
MISLBF


WESTERN AND NORTH CENTRAL NEBRASKA HOURLY WEATHER ROUNDUP
NATIONAL WEATHER SERVICE NORTH PLATTE NE
900 PM CDT SAT MAY 28 2016

NOTE: "FAIR" INDICATES FEW OR NO CLOUDS BELOW 12,000 FEET WITH NO
SIGNIFICANT WEATHER AND/OR OBSTRUCTIONS TO VISIBILITY.

NOTE: STATIONS NOT REPORTING VARIABLES SUCH AS SKY/WEATHER OR
PRESSURE ARE PROVIDED BY RAWS AND APRS NETWORKS AND ARE NOT UNDER
NATIONAL WEATHER SERVICE QUALITY CONTROL.

...OBSERVATIONS IN AND NEAR THE EASTERN PANHANDLE OF NEBRASKA...

CITY           SKY/WX    TMP DP  RH WIND       PRES   REMARKS
PINE RIDGE     CLOUDY    54  48  80 W3        30.01R
CHADRON        CLOUDY    56  51  84 SE5       30.01R
ALLIANCE       CLOUDY    60  52  74 N5        30.03R
SIDNEY         CLOUDY    64  48  56 W7        30.04R
CRESCENT LAKE    N/A     58  49  73 SW3         N/A
BIG SPRINGS      N/A     74  49  41 SW7         N/A
$$

...OBSERVATIONS IN NORTHERN NEBRASKA AND FAR SOUTHERN SOUTH DAKOTA...

CITY           SKY/WX    TMP DP  RH WIND       PRES   REMARKS
WINNER         FAIR      67  56  67 E3        29.92R
VALENTINE      CLOUDY    68  50  52 NE7       29.94R
THEDFORD       CLOUDY    65  52  62 W5        29.98R
AINSWORTH      CLEAR     64  55  71 E5        29.96R
O`NEILL        CLOUDY    62  56  82 CALM      29.95S
ORD            CLEAR     67  55  65 CALM      29.94R
BROKEN BOW     CLEAR     66  55  67 CALM      29.96R
BUTTE            N/A     63  57  80 CALM        N/A
CHAMBERS         N/A     63  56  78 CALM        N/A
EWING            N/A     62  58  87 CALM        N/A
$$

...OBSERVATIONS IN SOUTHWEST NEBRASKA AND FAR NORTHEAST COLORADO...

CITY           SKY/WX    TMP DP  RH WIND       PRES   REMARKS
WRAY           FAIR      64  52  63 CALM      30.01S
HOLYOKE        FAIR      68  52  56 CALM      30.02R
IMPERIAL       PTCLDY    69  55  60 CALM      29.99R
OGALLALA       MOCLDY    64  53  66 N6        30.00R
NORTH PLATTE   MOCLDY    65  54  67 W3        29.98R
MCCOOK         CLEAR     72  49  44 S3        29.98R
LEXINGTON      CLEAR     67  56  66 CALM      29.97R
PAXTON           N/A     71  56  59 CALM        N/A
STAPLETON        N/A     58  53  85 CALM        N/A
GOTHENBURG       N/A     76  47  35 CALM        N/A
CALLAWAY         N/A     73  57  57 CALM        N/A
$$

...OBSERVATIONS IN CENTRAL LINCOLN COUNTY AREA...

CITY           SKY/WX    TMP DP  RH WIND       PRES   REMARKS
N.P. AIRPORT   MOCLDY    65  54  67 W3        29.98R
N.P. DOWNTOWN    N/A     70  54  56 CALM        N/A
N.P. SOUTHEAST   N/A     70  52  52 CALM        N/A
N.P. HILLCREST   N/A     67  50  54 N12G20      N/A
$$

...SOME OBSERVATIONS FROM AROUND THE REGION...

CITY           SKY/WX    TMP DP  RH WIND       PRES   REMARKS
DENVER         MOCLDY    58  47  66 SE8       30.07R
LARAMIE        CLOUDY    56  32  40 W9        30.14R
CHEYENNE       CLEAR     60  35  39 W8        30.09R
SCOTTSBLUFF    CLEAR     65  47  52 SE9       30.02R
RAPID CITY     CLOUDY    59  52  77 CALM      29.97S
BISMARCK       CLOUDY    60  56  86 S3        29.91R
PIERRE         MOCLDY    64  54  69 N15G28    29.91R
SIOUX FALLS    CLOUDY    61  58  90 NW6       29.87R
OMAHA          PTCLDY    69  56  62 NW9       29.90R
GRAND ISLAND   CLEAR     66  58  75 NE7       29.95R
KANSAS CITY    PTCLDY    68  60  75 SW5       29.95R
WICHITA        CLEAR     76  57  51 NW3       29.97R
OKLAHOMA CITY  CLEAR     71  64  78 SE7       29.98R
DALLAS         MOCLDY    81  73  76 SE8       29.95R
AMARILLO       CLEAR     70  49  47 SE10      30.04R
DODGE CITY     CLEAR     69  54  58 E7        30.01R
HAYS           CLEAR     70  54  56 S6        29.99R
GOODLAND       CLEAR     67  47  48 SW6       30.02R
$$




USA.gov is the U.S. government's official web portal to all federal, state and local government web resources and services.